Flag for Estonia Weather past 2 weeks in Narva, Estonia

Now
44 °F

Light rain. Low clouds.


Feels Like: 40 °F
Forecast: 40 / 56 °F
Wind: 6 mph from Southeast

Location: Narva

Current Time: Apr 26, 2015 at 3:08:54 PM

Latest Report: Apr 26, 2015 at 2:00 PM


Visibility: 13 mi

Pressure: 29.65 "Hg

Humidity: 95%

Dew point: 42 °F

Location of NarvaLocation

Historic Weather in Narva — Graph

°F

Narva temperature yesterday

Maximum temperature yesterday: 50 °F (at 5:00 PM)
Minimum temperature yesterday: 34 °F (at 6:00 AM)
Average temperature yesterday: 43 °F

Past Weeks' High & Low Weather Summary

 TemperatureHumidityPressure
High67 °F (Apr 12, 2:00 PM)99% (Apr 14, 12:00 AM)30.06 "Hg (Apr 14, 12:00 AM)
Low33 °F (Apr 16, 4:00 AM)29% (Apr 11, 3:00 PM)29.18 "Hg (Apr 16, 5:00 AM)
Average41 °F74%29.70 "Hg
* Reported Apr 11 1:00 PM — Apr 26 1:00 PM, Narva, Weather by CustomWeather, © 2015

Note: Actual official high and low records may vary slightly from our data, if they occured in-between our weather recording intervals... More about our weather records

Advertising

Narva weather history for previous 24 hours

 ConditionsComfort  
Time TempWeatherWind HumidityBarometerVisibility
1:00 PM
Sun, Apr 26
43 °FLight rain. Low clouds.6 mph95%29.66 "Hg12 mi
12:00 PM42 °FLight rain. Low clouds.7 mph94%29.68 "Hg12 mi
11:00 AM41 °FLight rain. Low clouds.6 mph93%29.69 "Hg12 mi
10:00 AM41 °FLight rain. Overcast.7 mph91%29.69 "Hg12 mi
9:00 AM41 °FLight rain. Overcast.8 mph83%29.70 "Hg12 mi
8:00 AM41 °FLight rain. Overcast.7 mph80%29.72 "Hg12 mi
7:00 AM41 °FRain showers. Overcast.6 mph76%29.74 "Hg12 mi
6:00 AM41 °FLight rain. Overcast.6 mph71%29.75 "Hg12 mi
5:00 AM41 °FOvercast.6 mph67%29.76 "Hg12 mi
4:00 AM41 °FOvercast.6 mph66%29.79 "Hg12 mi
3:00 AM42 °FOvercast.6 mph65%29.80 "Hg12 mi
2:00 AM42 °FLight rain. Overcast.6 mph64%29.83 "Hg12 mi
1:00 AM43 °FOvercast.5 mph50%29.84 "Hg12 mi
12:00 AM44 °FOvercast.5 mph50%29.85 "Hg12 mi
11:00 PM
Sat, Apr 25
43 °FOvercast.3 mph50%29.85 "Hg12 mi
10:00 PM42 °FPassing clouds.3 mph50%29.85 "Hg1 mi
9:00 PM46 °FPassing clouds.2 mph45%29.86 "Hg6 mi
8:00 PM48 °FPartly sunny.1 mph38%29.86 "Hg12 mi
7:00 PM49 °FPassing clouds.2 mph36%29.86 "Hg12 mi
6:00 PM50 °FPassing clouds.2 mph35%29.87 "Hg12 mi
5:00 PM50 °FPassing clouds.2 mph36%29.87 "Hg12 mi
4:00 PM49 °FScattered clouds.3 mph38%29.88 "Hg12 mi
3:00 PM49 °FSunny.3 mph42%29.88 "Hg12 mi
Weather by CustomWeather, © 2015

See weather overviewHow to use our weather pages